Time,TemperatureF,DewpointF,PressureIn,WindDirection,WindDirectionDegrees,WindSpeedMPH,WindSpeedGustMPH,Humidity,HourlyPrecipIn,Conditions,Clouds,dailyrainin,SoftwareType,DateUTC
2013-05-27 00:02:00,71.0,63.0,29.98,North,-999,-999.0,-999.0,76,-99.99,,,-99.99,,2013-05-27 05:02:00,
2013-05-27 00:12:00,71.0,63.0,29.98,North,-999,-999.0,-999.0,76,-99.99,,,-99.99,,2013-05-27 05:12:00,
2013-05-27 00:22:00,71.0,63.0,29.97,North,-999,-999.0,-999.0,77,-99.99,,,-99.99,,2013-05-27 05:22:00,
2013-05-27 00:32:00,70.0,63.0,29.97,North,-999,-999.0,-999.0,78,-99.99,,,-99.99,,2013-05-27 05:32:00,
2013-05-27 00:42:00,70.0,63.0,29.97,North,-999,-999.0,-999.0,78,-99.99,,,-99.99,,2013-05-27 05:42:00,
2013-05-27 00:52:00,70.0,63.0,29.97,North,-999,-999.0,-999.0,77,-99.99,,,-99.99,,2013-05-27 05:52:00,
2013-05-27 01:02:00,70.0,63.0,29.97,North,-999,-999.0,-999.0,77,-99.99,,,-99.99,,2013-05-27 06:02:00,
2013-05-27 01:11:00,70.0,62.0,29.96,North,-999,-999.0,-999.0,77,-99.99,,,-99.99,,2013-05-27 06:11:00,
2013-05-27 01:21:00,69.0,62.0,29.97,North,-999,-999.0,-999.0,79,-99.99,,,-99.99,,2013-05-27 06:21:00,
2013-05-27 01:32:00,69.0,62.0,29.97,North,-999,-999.0,-999.0,79,-99.99,,,-99.99,,2013-05-27 06:32:00,
2013-05-27 01:42:00,69.0,62.0,29.97,North,-999,-999.0,-999.0,79,-99.99,,,-99.99,,2013-05-27 06:42:00,
2013-05-27 01:52:00,68.0,62.0,29.97,North,-999,-999.0,-999.0,80,-99.99,,,-99.99,,2013-05-27 06:52:00,
2013-05-27 02:02:00,68.0,62.0,29.97,North,-999,-999.0,-999.0,80,-99.99,,,-99.99,,2013-05-27 07:02:00,
2013-05-27 02:11:00,68.0,62.0,29.97,North,-999,-999.0,-999.0,80,-99.99,,,-99.99,,2013-05-27 07:11:00,
2013-05-27 02:21:00,68.0,61.0,29.97,North,-999,-999.0,-999.0,80,-99.99,,,-99.99,,2013-05-27 07:21:00,
2013-05-27 02:32:00,68.0,61.0,29.98,North,-999,-999.0,-999.0,79,-99.99,,,-99.99,,2013-05-27 07:32:00,
2013-05-27 02:42:00,68.0,61.0,29.98,North,-999,-999.0,-999.0,79,-99.99,,,-99.99,,2013-05-27 07:42:00,
2013-05-27 02:52:00,68.0,61.0,29.97,North,-999,-999.0,-999.0,79,-99.99,,,-99.99,,2013-05-27 07:52:00,
2013-05-27 03:02:00,68.0,61.0,29.97,North,-999,-999.0,-999.0,79,-99.99,,,-99.99,,2013-05-27 08:02:00,
2013-05-27 03:11:00,67.0,61.0,29.97,North,-999,-999.0,-999.0,79,-99.99,,,-99.99,,2013-05-27 08:11:00,
2013-05-27 03:22:00,67.0,61.0,29.97,North,-999,-999.0,-999.0,79,-99.99,,,-99.99,,2013-05-27 08:22:00,
2013-05-27 03:33:00,67.0,61.0,29.97,North,-999,-999.0,-999.0,79,-99.99,,,-99.99,,2013-05-27 08:33:00,
2013-05-27 03:42:00,67.0,60.0,29.96,North,-999,-999.0,-999.0,79,-99.99,,,-99.99,,2013-05-27 08:42:00,
2013-05-27 03:52:00,67.0,60.0,29.97,North,-999,-999.0,-999.0,79,-99.99,,,-99.99,,2013-05-27 08:52:00,
2013-05-27 04:02:00,67.0,60.0,29.97,North,-999,-999.0,-999.0,79,-99.99,,,-99.99,,2013-05-27 09:02:00,
2013-05-27 04:11:00,67.0,60.0,29.96,North,-999,-999.0,-999.0,80,-99.99,,,-99.99,,2013-05-27 09:11:00,
2013-05-27 04:21:00,66.0,60.0,29.96,North,-999,-999.0,-999.0,81,-99.99,,,-99.99,,2013-05-27 09:21:00,
2013-05-27 04:33:00,66.0,60.0,29.96,North,-999,-999.0,-999.0,81,-99.99,,,-99.99,,2013-05-27 09:33:00,
2013-05-27 04:42:00,66.0,60.0,29.96,North,-999,-999.0,-999.0,82,-99.99,,,-99.99,,2013-05-27 09:42:00,
2013-05-27 04:53:00,65.0,60.0,29.96,North,-999,-999.0,-999.0,83,-99.99,,,-99.99,,2013-05-27 09:53:00,
2013-05-27 05:02:00,65.0,60.0,29.96,North,-999,-999.0,-999.0,83,-99.99,,,-99.99,,2013-05-27 10:02:00,
2013-05-27 05:12:00,66.0,60.0,29.96,North,-999,-999.0,-999.0,83,-99.99,,,-99.99,,2013-05-27 10:12:00,
2013-05-27 05:22:00,66.0,61.0,29.94,North,-999,-999.0,-999.0,82,-99.99,,,-99.99,,2013-05-27 10:22:00,
2013-05-27 05:32:00,66.0,61.0,29.94,North,-999,-999.0,-999.0,82,-99.99,,,-99.99,,2013-05-27 10:32:00,
2013-05-27 05:42:00,66.0,61.0,29.94,North,-999,-999.0,-999.0,82,-99.99,,,-99.99,,2013-05-27 10:42:00,
2013-05-27 05:52:00,66.0,60.0,29.94,North,-999,-999.0,-999.0,82,-99.99,,,-99.99,,2013-05-27 10:52:00,
2013-05-27 06:02:00,66.0,60.0,29.94,North,-999,-999.0,-999.0,82,-99.99,,,-99.99,,2013-05-27 11:02:00,
2013-05-27 06:11:00,66.0,60.0,29.94,North,-999,-999.0,-999.0,82,-99.99,,,-99.99,,2013-05-27 11:11:00,
2013-05-27 06:22:00,66.0,61.0,29.93,North,-999,-999.0,-999.0,83,-99.99,,,-99.99,,2013-05-27 11:22:00,
2013-05-27 06:32:00,66.0,61.0,29.93,North,-999,-999.0,-999.0,83,-99.99,,,-99.99,,2013-05-27 11:32:00,
2013-05-27 06:42:00,66.0,61.0,29.93,North,-999,-999.0,-999.0,83,-99.99,,,-99.99,,2013-05-27 11:42:00,
2013-05-27 06:52:00,67.0,61.0,29.92,North,-999,-999.0,-999.0,83,-99.99,,,-99.99,,2013-05-27 11:52:00,
2013-05-27 07:01:00,67.0,61.0,29.92,North,-999,-999.0,-999.0,83,-99.99,,,-99.99,,2013-05-27 12:01:00,
2013-05-27 07:11:00,67.0,62.0,29.92,North,-999,-999.0,-999.0,83,-99.99,,,-99.99,,2013-05-27 12:11:00,
2013-05-27 07:22:00,68.0,62.0,29.92,North,-999,-999.0,-999.0,82,-99.99,,,-99.99,,2013-05-27 12:22:00,
2013-05-27 07:32:00,68.0,62.0,29.92,North,-999,-999.0,-999.0,82,-99.99,,,-99.99,,2013-05-27 12:32:00,
2013-05-27 07:42:00,68.0,62.0,29.92,North,-999,-999.0,-999.0,82,-99.99,,,-99.99,,2013-05-27 12:42:00,
2013-05-27 07:52:00,68.0,62.0,29.92,North,-999,-999.0,-999.0,81,-99.99,,,-99.99,,2013-05-27 12:52:00,
2013-05-27 08:01:00,68.0,62.0,29.92,North,-999,-999.0,-999.0,81,-99.99,,,-99.99,,2013-05-27 13:01:00,
2013-05-27 08:11:00,69.0,63.0,29.92,North,-999,-999.0,-999.0,81,-99.99,,,-99.99,,2013-05-27 13:11:00,
2013-05-27 08:22:00,70.0,63.0,29.93,North,-999,-999.0,-999.0,79,-99.99,,,-99.99,,2013-05-27 13:22:00,
2013-05-27 08:32:00,70.0,63.0,29.93,North,-999,-999.0,-999.0,79,-99.99,,,-99.99,,2013-05-27 13:32:00,
2013-05-27 08:42:00,71.0,64.0,29.93,North,-999,-999.0,-999.0,79,-99.99,,,-99.99,,2013-05-27 13:42:00,
2013-05-27 08:52:00,71.0,64.0,29.93,North,-999,-999.0,-999.0,77,-99.99,,,-99.99,,2013-05-27 13:52:00,
2013-05-27 09:02:00,71.0,64.0,29.93,North,-999,-999.0,-999.0,77,-99.99,,,-99.99,,2013-05-27 14:02:00,
2013-05-27 09:11:00,72.0,65.0,29.93,North,-999,-999.0,-999.0,77,-99.99,,,-99.99,,2013-05-27 14:11:00,
2013-05-27 09:21:00,73.0,65.0,29.92,North,-999,-999.0,-999.0,77,-99.99,,,-99.99,,2013-05-27 14:21:00,
2013-05-27 09:32:00,73.0,65.0,29.92,North,-999,-999.0,-999.0,77,-99.99,,,-99.99,,2013-05-27 14:32:00,
2013-05-27 09:42:00,73.0,65.0,29.92,North,-999,-999.0,-999.0,76,-99.99,,,-99.99,,2013-05-27 14:42:00,
2013-05-27 09:52:00,73.0,65.0,29.90,North,-999,-999.0,-999.0,76,-99.99,,,-99.99,,2013-05-27 14:52:00,
2013-05-27 10:01:00,73.0,65.0,29.90,North,-999,-999.0,-999.0,76,-99.99,,,-99.99,,2013-05-27 15:01:00,
2013-05-27 10:11:00,74.0,66.0,29.89,North,-999,-999.0,-999.0,76,-99.99,,,-99.99,,2013-05-27 15:11:00,
2013-05-27 10:21:00,75.0,65.0,29.88,North,-999,-999.0,-999.0,73,-99.99,,,-99.99,,2013-05-27 15:21:00,
2013-05-27 10:33:00,75.0,65.0,29.88,North,-999,-999.0,-999.0,73,-99.99,,,-99.99,,2013-05-27 15:33:00,
2013-05-27 10:43:00,76.0,66.0,29.88,North,-999,-999.0,-999.0,73,-99.99,,,-99.99,,2013-05-27 15:43:00,
2013-05-27 10:53:00,76.0,66.0,29.87,North,-999,-999.0,-999.0,71,-99.99,,,-99.99,,2013-05-27 15:53:00,
2013-05-27 11:03:00,76.0,66.0,29.87,North,-999,-999.0,-999.0,71,-99.99,,,-99.99,,2013-05-27 16:03:00,
2013-05-27 11:12:00,77.0,66.0,29.86,North,-999,-999.0,-999.0,69,-99.99,,,-99.99,,2013-05-27 16:12:00,
2013-05-27 11:23:00,77.0,66.0,29.88,North,-999,-999.0,-999.0,69,-99.99,,,-99.99,,2013-05-27 16:23:00,
2013-05-27 11:33:00,77.0,66.0,29.88,North,-999,-999.0,-999.0,69,-99.99,,,-99.99,,2013-05-27 16:33:00,
2013-05-27 11:42:00,77.0,66.0,29.88,North,-999,-999.0,-999.0,69,-99.99,,,-99.99,,2013-05-27 16:42:00,
2013-05-27 11:52:00,78.0,66.0,29.89,North,-999,-999.0,-999.0,68,-99.99,,,-99.99,,2013-05-27 16:52:00,
2013-05-27 12:00:00,80.0,66.0,29.87,North,-999,-999.0,-999.0,63,-99.99,,,-99.99,,2013-05-27 17:00:00,
2013-05-27 12:02:00,78.0,66.0,29.89,North,-999,-999.0,-999.0,68,-99.99,,,-99.99,,2013-05-27 17:02:00,
2013-05-27 12:11:00,79.0,67.0,29.89,North,-999,-999.0,-999.0,68,-99.99,,,-99.99,,2013-05-27 17:11:00,
2013-05-27 12:22:00,80.0,67.0,29.88,North,-999,-999.0,-999.0,64,-99.99,,,-99.99,,2013-05-27 17:22:00,
2013-05-27 12:32:00,80.0,67.0,29.88,North,-999,-999.0,-999.0,64,-99.99,,,-99.99,,2013-05-27 17:32:00,
2013-05-27 12:43:00,80.0,66.0,29.87,North,-999,-999.0,-999.0,63,-99.99,,,-99.99,,2013-05-27 17:43:00,
2013-05-27 12:52:00,80.0,66.0,29.87,North,-999,-999.0,-999.0,63,-99.99,,,-99.99,,2013-05-27 17:52:00,
2013-05-27 13:11:00,80.0,67.0,29.88,North,-999,-999.0,-999.0,64,-99.99,,,-99.99,,2013-05-27 18:11:00,
2013-05-27 13:22:00,80.0,66.0,29.88,North,-999,-999.0,-999.0,62,-99.99,,,-99.99,,2013-05-27 18:22:00,
2013-05-27 13:32:00,80.0,66.0,29.88,North,-999,-999.0,-999.0,62,-99.99,,,-99.99,,2013-05-27 18:32:00,
2013-05-27 13:42:00,81.0,67.0,29.88,North,-999,-999.0,-999.0,63,-99.99,,,-99.99,,2013-05-27 18:42:00,
2013-05-27 13:52:00,81.0,67.0,29.88,North,-999,-999.0,-999.0,61,-99.99,,,-99.99,,2013-05-27 18:52:00,
2013-05-27 14:01:00,81.0,67.0,29.88,North,-999,-999.0,-999.0,61,-99.99,,,-99.99,,2013-05-27 19:01:00,
2013-05-27 14:11:00,82.0,67.0,29.88,North,-999,-999.0,-999.0,59,-99.99,,,-99.99,,2013-05-27 19:11:00,
2013-05-27 14:21:00,82.0,66.0,29.87,North,-999,-999.0,-999.0,59,-99.99,,,-99.99,,2013-05-27 19:21:00,
2013-05-27 14:32:00,83.0,67.0,29.86,North,-999,-999.0,-999.0,60,-99.99,,,-99.99,,2013-05-27 19:32:00,
2013-05-27 14:42:00,83.0,67.0,29.86,North,-999,-999.0,-999.0,60,-99.99,,,-99.99,,2013-05-27 19:42:00,
2013-05-27 14:52:00,83.0,67.0,29.86,North,-999,-999.0,-999.0,58,-99.99,,,-99.99,,2013-05-27 19:52:00,
2013-05-27 15:00:00,83.0,65.0,29.85,North,-999,-999.0,-999.0,55,-99.99,,,-99.99,,2013-05-27 20:00:00,
2013-05-27 15:01:00,83.0,67.0,29.86,North,-999,-999.0,-999.0,58,-99.99,,,-99.99,,2013-05-27 20:01:00,
2013-05-27 15:11:00,83.0,67.0,29.86,North,-999,-999.0,-999.0,57,-99.99,,,-99.99,,2013-05-27 20:11:00,
2013-05-27 15:22:00,83.0,66.0,29.86,North,-999,-999.0,-999.0,57,-99.99,,,-99.99,,2013-05-27 20:22:00,
2013-05-27 15:32:00,83.0,66.0,29.86,North,-999,-999.0,-999.0,57,-99.99,,,-99.99,,2013-05-27 20:32:00,
2013-05-27 15:42:00,83.0,65.0,29.85,North,-999,-999.0,-999.0,55,-99.99,,,-99.99,,2013-05-27 20:42:00,
2013-05-27 15:52:00,83.0,65.0,29.85,North,-999,-999.0,-999.0,55,-99.99,,,-99.99,,2013-05-27 20:52:00,
2013-05-27 16:12:00,84.0,67.0,29.85,North,-999,-999.0,-999.0,56,-99.99,,,-99.99,,2013-05-27 21:12:00,
2013-05-27 16:21:00,83.0,65.0,29.84,North,-999,-999.0,-999.0,56,-99.99,,,-99.99,,2013-05-27 21:21:00,
2013-05-27 16:33:00,82.0,66.0,29.84,North,-999,-999.0,-999.0,59,-99.99,,,-99.99,,2013-05-27 21:33:00,
2013-05-27 16:43:00,82.0,66.0,29.84,North,-999,-999.0,-999.0,59,-99.99,,,-99.99,,2013-05-27 21:43:00,
2013-05-27 16:53:00,83.0,67.0,29.83,North,-999,-999.0,-999.0,60,-99.99,,,-99.99,,2013-05-27 21:53:00,
2013-05-27 17:02:00,83.0,67.0,29.83,North,-999,-999.0,-999.0,60,-99.99,,,-99.99,,2013-05-27 22:02:00,
2013-05-27 17:12:00,82.0,65.0,29.83,North,-999,-999.0,-999.0,57,-99.99,,,-99.99,,2013-05-27 22:12:00,
2013-05-27 17:22:00,82.0,66.0,29.83,North,-999,-999.0,-999.0,58,-99.99,,,-99.99,,2013-05-27 22:22:00,
2013-05-27 17:33:00,82.0,65.0,29.83,North,-999,-999.0,-999.0,57,-99.99,,,-99.99,,2013-05-27 22:33:00,
2013-05-27 17:42:00,82.0,65.0,29.83,North,-999,-999.0,-999.0,57,-99.99,,,-99.99,,2013-05-27 22:42:00,
2013-05-27 17:52:00,81.0,65.0,29.82,North,-999,-999.0,-999.0,58,-99.99,,,-99.99,,2013-05-27 22:52:00,
2013-05-27 18:02:00,81.0,65.0,29.82,North,-999,-999.0,-999.0,58,-99.99,,,-99.99,,2013-05-27 23:02:00,
2013-05-27 18:12:00,81.0,65.0,29.82,North,-999,-999.0,-999.0,59,-99.99,,,-99.99,,2013-05-27 23:12:00,
2013-05-27 18:22:00,80.0,64.0,29.82,North,-999,-999.0,-999.0,58,-99.99,,,-99.99,,2013-05-27 23:22:00,
2013-05-27 18:32:00,80.0,64.0,29.82,North,-999,-999.0,-999.0,58,-99.99,,,-99.99,,2013-05-27 23:32:00,
2013-05-27 18:42:00,81.0,63.0,29.81,North,-999,-999.0,-999.0,56,-99.99,,,-99.99,,2013-05-27 23:42:00,
2013-05-27 18:50:00,78.0,63.0,29.78,North,-999,-999.0,-999.0,60,-99.99,,,-99.99,,2013-05-27 23:50:00,
2013-05-27 18:52:00,80.0,64.0,29.79,North,-999,-999.0,-999.0,59,-99.99,,,-99.99,,2013-05-27 23:52:00,
2013-05-27 19:01:00,80.0,64.0,29.79,North,-999,-999.0,-999.0,59,-99.99,,,-99.99,,2013-05-28 00:01:00,
2013-05-27 19:11:00,79.0,64.0,29.79,North,-999,-999.0,-999.0,59,-99.99,,,-99.99,,2013-05-28 00:11:00,
2013-05-27 19:21:00,78.0,63.0,29.78,North,-999,-999.0,-999.0,60,-99.99,,,-99.99,,2013-05-28 00:21:00,
2013-05-27 19:32:00,78.0,63.0,29.78,North,-999,-999.0,-999.0,60,-99.99,,,-99.99,,2013-05-28 00:32:00,
2013-05-27 19:42:00,78.0,63.0,29.78,North,-999,-999.0,-999.0,60,-99.99,,,-99.99,,2013-05-28 00:42:00,
2013-05-27 20:11:00,78.0,63.0,29.78,North,-999,-999.0,-999.0,62,-99.99,,,-99.99,,2013-05-28 01:11:00,
2013-05-27 20:22:00,77.0,63.0,29.78,North,-999,-999.0,-999.0,63,-99.99,,,-99.99,,2013-05-28 01:22:00,
2013-05-27 20:32:00,76.0,63.0,29.78,North,-999,-999.0,-999.0,64,-99.99,,,-99.99,,2013-05-28 01:32:00,
2013-05-27 20:41:00,76.0,63.0,29.78,North,-999,-999.0,-999.0,64,-99.99,,,-99.99,,2013-05-28 01:41:00,
2013-05-27 20:52:00,76.0,64.0,29.78,North,-999,-999.0,-999.0,66,-99.99,,,-99.99,,2013-05-28 01:52:00,
2013-05-27 21:02:00,76.0,64.0,29.78,North,-999,-999.0,-999.0,66,-99.99,,,-99.99,,2013-05-28 02:02:00,
2013-05-27 21:11:00,76.0,64.0,29.78,North,-999,-999.0,-999.0,67,-99.99,,,-99.99,,2013-05-28 02:11:00,
2013-05-27 21:21:00,75.0,63.0,29.76,North,-999,-999.0,-999.0,67,-99.99,,,-99.99,,2013-05-28 02:21:00,
2013-05-27 21:32:00,75.0,63.0,29.76,North,-999,-999.0,-999.0,67,-99.99,,,-99.99,,2013-05-28 02:32:00,
2013-05-27 21:42:00,75.0,63.0,29.76,North,-999,-999.0,-999.0,67,-99.99,,,-99.99,,2013-05-28 02:42:00,
2013-05-27 21:52:00,74.0,63.0,29.76,North,-999,-999.0,-999.0,67,-99.99,,,-99.99,,2013-05-28 02:52:00,
2013-05-27 22:01:00,74.0,63.0,29.76,North,-999,-999.0,-999.0,67,-99.99,,,-99.99,,2013-05-28 03:01:00,
2013-05-27 22:11:00,74.0,63.0,29.76,North,-999,-999.0,-999.0,67,-99.99,,,-99.99,,2013-05-28 03:11:00,
2013-05-27 22:21:00,74.0,62.0,29.78,North,-999,-999.0,-999.0,66,-99.99,,,-99.99,,2013-05-28 03:21:00,
2013-05-27 22:33:00,74.0,62.0,29.78,North,-999,-999.0,-999.0,66,-99.99,,,-99.99,,2013-05-28 03:33:00,
2013-05-27 22:43:00,74.0,62.0,29.79,North,-999,-999.0,-999.0,66,-99.99,,,-99.99,,2013-05-28 03:43:00,
2013-05-27 22:53:00,74.0,62.0,29.80,North,-999,-999.0,-999.0,66,-99.99,,,-99.99,,2013-05-28 03:53:00,
2013-05-27 23:03:00,74.0,62.0,29.80,North,-999,-999.0,-999.0,66,-99.99,,,-99.99,,2013-05-28 04:03:00,
2013-05-27 23:13:00,74.0,62.0,29.80,North,-999,-999.0,-999.0,65,-99.99,,,-99.99,,2013-05-28 04:13:00,
2013-05-27 23:22:00,74.0,62.0,29.80,North,-999,-999.0,-999.0,66,-99.99,,,-99.99,,2013-05-28 04:22:00,
2013-05-27 23:33:00,74.0,62.0,29.80,North,-999,-999.0,-999.0,66,-99.99,,,-99.99,,2013-05-28 04:33:00,
2013-05-27 23:43:00,74.0,62.0,29.80,North,-999,-999.0,-999.0,66,-99.99,,,-99.99,,2013-05-28 04:43:00,
2013-05-27 23:52:00,73.0,62.0,29.80,North,-999,-999.0,-999.0,67,-99.99,,,-99.99,,2013-05-28 04:52:00,